Location: Newark
(57.9988°N, 22.0181°E)
Time: 16:03:31
(UTC+00:00)

Envisat - Visible Passes

Search period start: 10 December 2019 00:00
Search period end: 20 December 2019 00:00
Orbit: 764 x 766 km, 98.1° (Epoch: 10 December)

Date Brightness Start Highest point End Pass type
(mag) Time Alt. Az. Time Alt. Az. Time Alt. Az.
10 Dec 5.0 04:38:13 10° NNE 04:42:42 30° E 04:47:08 10° SSE visible
10 Dec 2.9 16:01:15 10° SSE 16:06:20 86° ENE 16:11:28 10° NNW visible
10 Dec 5.4 17:42:15 10° SW 17:46:03 21° W 17:49:52 10° NW visible
11 Dec 5.9 04:02:07 10° NE 04:05:27 17° E 04:08:45 10° SE visible
11 Dec 3.2 05:40:12 10° NNE 05:45:20 79° ESE 05:50:26 10° SSW visible
11 Dec 3.1 15:24:44 10° SE 15:29:38 50° ENE 15:34:34 10° N visible
11 Dec 4.5 17:04:12 10° SSW 17:08:52 36° W 17:13:35 10° NNW visible
12 Dec 4.3 05:03:31 10° NNE 05:08:24 44° E 05:13:16 10° S visible
12 Dec 3.7 14:48:42 10° ESE 14:53:06 31° NE 14:57:32 10° N visible
12 Dec 3.4 16:26:49 10° S 16:31:52 64° WSW 16:36:58 10° NNW visible
12 Dec 6.0 18:09:20 10° WSW 18:11:57 14° W 18:14:34 10° NW visible
13 Dec 5.3 04:27:04 10° NE 04:31:17 25° E 04:35:29 10° SE visible
13 Dec 3.0 06:05:44 10° NNE 06:10:50 71° WNW 06:15:54 10° SSW visible
13 Dec 2.9 15:49:59 10° SSE 15:55:03 74° ENE 16:00:10 10° NNW visible
13 Dec 5.2 17:30:29 10° SW 17:34:37 25° W 17:38:47 10° NW visible
14 Dec 6.0 03:51:13 10° NE 03:53:59 14° E 03:56:44 10° ESE visible
14 Dec 3.5 05:28:56 10° NNE 05:34:02 67° ESE 05:39:05 10° S visible
14 Dec 3.3 15:13:37 10° SE 15:18:25 43° ENE 15:23:13 10° N visible
14 Dec 4.2 16:52:40 10° S 16:57:30 43° W 17:02:22 10° NNW visible
15 Dec 4.6 04:52:17 10° NNE 04:57:03 37° E 05:01:45 10° SSE visible
15 Dec 3.9 14:37:43 10° ESE 14:41:55 27° NE 14:46:09 10° N visible
15 Dec 3.1 16:15:28 10° SSE 16:20:34 76° WSW 16:25:41 10° NNW visible
15 Dec 5.8 17:57:17 10° WSW 18:00:29 17° W 18:03:42 10° NW visible
16 Dec 5.6 04:15:58 10° NE 04:19:53 22° E 04:23:45 10° SE visible
16 Dec 3.0 05:54:25 10° NNE 05:59:33 83° WNW 06:04:39 10° SSW visible
16 Dec 3.0 15:38:47 10° SSE 15:43:47 63° ENE 15:48:50 10° NNW visible
16 Dec 4.9 17:18:50 10° SSW 17:23:13 29° W 17:27:39 10° NNW visible
17 Dec 6.2 03:40:33 10° ENE 03:42:30 12° E 03:44:27 10° ESE visible
17 Dec 3.8 05:17:40 10° NNE 05:22:42 56° E 05:27:42 10° S visible
17 Dec 3.5 15:02:33 10° SE 15:07:12 37° ENE 15:11:52 10° N visible
17 Dec 3.9 16:41:13 10° S 16:46:09 51° W 16:51:08 10° NNW visible
17 Dec 6.2 18:25:16 10° W 18:26:26 11° WNW 18:27:36 10° WNW visible
18 Dec 4.9 04:41:06 10° NNE 04:45:40 32° E 04:50:12 10° SSE visible
18 Dec 3.1 06:20:01 10° N 06:25:00 57° WNW 06:29:59 10° SW visible
18 Dec 4.0 14:26:47 10° ESE 14:30:45 24° NE 14:34:45 10° N visible
18 Dec 3.0 16:04:10 10° SSE 16:09:16 89° WSW 16:14:24 10° NNW visible
18 Dec 5.5 17:45:23 10° SW 17:49:02 20° W 17:52:42 10° NW visible
19 Dec 5.8 04:04:56 10° NE 04:08:26 18° E 04:11:55 10° SE visible
19 Dec 3.1 05:43:08 10° NNE 05:48:16 84° ESE 05:53:22 10° SSW visible
19 Dec 3.1 15:27:37 10° SE 15:32:33 53° ENE 15:37:30 10° N visible
19 Dec 4.6 17:07:13 10° SSW 17:11:50 34° W 17:16:28 10° NNW visible
